| time (UTC) | temp C | wind direction | speed KPH | gust KPH | rain 1hr cm | rain 24hr cm | rain mn cm | humidity % | barometer mb |
| 20260502151902 | 7 | 247 | 1.6 | 9.7 | 0.00 | 0.00 | 0.00 | 97 | 1016.9 |
| 20260502151404 | 7 | 45 | 0.0 | 9.7 | 0.00 | 0.00 | 0.00 | 97 | 1017.0 |
| 20260502150403 | 7 | 192 | 1.6 | 9.7 | 0.00 | 0.00 | 0.00 | 96 | 1017.3 |
| 20260502123402 | 7 | 8 | 0.0 | 9.7 | 0.00 | 0.00 | 0.00 | 92 | 1018.4 |
| 20260502122902 | 7 | 184 | 1.6 | 9.7 | 0.00 | 0.00 | 0.00 | 92 | 1018.5 |
| 20260502121902 | 7 | 191 | 0.0 | 0.0 | 0.00 | 0.00 | 0.00 | 92 | 1018.4 |
| 20260502120903 | 7 | 191 | 0.0 | 4.8 | 0.00 | 0.00 | 0.00 | 92 | 1018.4 |
| 20260502120403 | 7 | 191 | 1.6 | 4.8 | 0.00 | 0.00 | 0.00 | 92 | 1018.2 |
| 20260502115904 | 7 | 17 | 0.0 | 0.0 | 0.00 | 0.00 | 0.00 | 92 | 1018.0 |
| 20260502115402 | 7 | 17 | 0.0 | 0.0 | 0.00 | 0.00 | 0.00 | 92 | 1017.9 |
| 20260502114904 | 6 | 17 | 0.0 | 0.0 | 0.00 | 0.00 | 0.00 | 92 | 1017.8 |
| 20260502114404 | 6 | 17 | 0.0 | 0.0 | 0.00 | 0.00 | 0.00 | 92 | 1017.8 |
| 20260502112403 | 6 | 17 | 0.0 | 0.0 | 0.00 | 0.00 | 0.00 | 92 | 1017.9 |
| 20260502111903 | 6 | 17 | 0.0 | 0.0 | 0.00 | 0.00 | 0.00 | 92 | 1018.0 |
| 20260502111403 | 6 | 17 | 0.0 | 0.0 | 0.00 | 0.00 | 0.00 | 92 | 1018.0 |
| 20260502110903 | 6 | 17 | 0.0 | 0.0 | 0.00 | 0.00 | 0.00 | 92 | 1017.9 |
| 20260502110404 | 6 | 17 | 0.0 | 0.0 | 0.00 | 0.00 | 0.00 | 92 | 1017.7 |
| 20260502105904 | 5 | 17 | 0.0 | 0.0 | 0.00 | 0.00 | 0.00 | 91 | 1017.8 |
| 20260502103403 | 5 | 17 | 0.0 | 0.0 | 0.00 | 0.00 | 0.00 | 91 | 1017.0 |
| 20260502102903 | 5 | 17 | 0.0 | 0.0 | 0.00 | 0.00 | 0.00 | 90 | 1017.0 |
| 20260502102402 | 5 | 17 | 0.0 | 0.0 | 0.00 | 0.00 | 0.00 | 90 | 1017.1 |
| 20260502101902 | 5 | 17 | 0.0 | 0.0 | 0.00 | 0.00 | 0.00 | 90 | 1017.2 |
| 20260502101402 | 5 | 17 | 0.0 | 0.0 | 0.00 | 0.00 | 0.00 | 90 | 1017.2 |
| 20260502100902 | 5 | 17 | 0.0 | 0.0 | 0.00 | 0.00 | 0.00 | 90 | 1017.1 |
| 20260502100402 | 5 | 17 | 0.0 | 0.0 | 0.00 | 0.00 | 0.00 | 90 | 1016.9 |
| 20260502091403 | 5 | 17 | 0.0 | 0.0 | 0.00 | 0.00 | 0.00 | 87 | 1017.2 |
| 20260502090903 | 5 | 17 | 0.0 | 0.0 | 0.00 | 0.00 | 0.00 | 87 | 1017.4 |
| 20260502071402 | 5 | 17 | 0.0 | 0.0 | 0.00 | 0.00 | 0.00 | 84 | 1017.0 |
| 20260502070903 | 5 | 17 | 0.0 | 0.0 | 0.00 | 0.00 | 0.00 | 84 | 1016.9 |
| 20260502070404 | 5 | 17 | 0.0 | 0.0 | 0.00 | 0.00 | 0.00 | 84 | 1017.0 |
| 20260502065403 | 4 | 17 | 0.0 | 0.0 | 0.00 | 0.00 | 0.00 | 83 | 1016.9 |
| 20260502064903 | 4 | 17 | 0.0 | 0.0 | 0.00 | 0.00 | 0.00 | 83 | 1016.8 |
| 20260502064403 | 4 | 17 | 0.0 | 0.0 | 0.00 | 0.00 | 0.00 | 82 | 1016.8 |
| 20260502063903 | 4 | 17 | 0.0 | 0.0 | 0.00 | 0.00 | 0.00 | 80 | 1016.8 |
| 20260502063404 | 4 | 17 | 0.0 | 0.0 | 0.00 | 0.00 | 0.00 | 80 | 1016.7 |
| 20260502062404 | 4 | 17 | 0.0 | 0.0 | 0.00 | 0.00 | 0.00 | 79 | 1016.7 |
| 20260502061904 | 4 | 17 | 0.0 | 0.0 | 0.00 | 0.00 | 0.00 | 79 | 1016.8 |
| 20260502061403 | 4 | 17 | 0.0 | 0.0 | 0.00 | 0.00 | 0.00 | 78 | 1016.8 |
| 20260502060903 | 4 | 17 | 0.0 | 0.0 | 0.00 | 0.00 | 0.00 | 78 | 1016.8 |
| 20260502060403 | 4 | 17 | 0.0 | 0.0 | 0.00 | 0.00 | 0.00 | 78 | 1016.7 |
| 20260502055904 | 4 | 17 | 0.0 | 0.0 | 0.00 | 0.00 | 0.00 | 78 | 1016.8 |
| 20260502055404 | 4 | 17 | 0.0 | 0.0 | 0.00 | 0.00 | 0.00 | 77 | 1016.8 |
| 20260502054903 | 4 | 17 | 0.0 | 0.0 | 0.00 | 0.00 | 0.00 | 77 | 1016.8 |
| 20260502054402 | 4 | 17 | 0.0 | 0.0 | 0.00 | 0.00 | 0.00 | 77 | 1016.8 |
| 20260502053405 | 5 | 17 | 0.0 | 0.0 | 0.00 | 0.00 | 0.00 | 76 | 1016.6 |
| 20260502052903 | 5 | 17 | 0.0 | 0.0 | 0.00 | 0.00 | 0.00 | 75 | 1016.7 |
| 20260502052404 | 5 | 17 | 0.0 | 0.0 | 0.00 | 0.00 | 0.00 | 75 | 1016.8 |
| 20260502051404 | 5 | 17 | 0.0 | 0.0 | 0.00 | 0.00 | 0.00 | 75 | 1016.7 |
| 20260502050903 | 5 | 17 | 0.0 | 0.0 | 0.00 | 0.00 | 0.00 | 74 | 1016.8 |
| 20260502050403 | 5 | 17 | 0.0 | 0.0 | 0.00 | 0.00 | 0.00 | 74 | 1016.8 |
| 20260502045902 | 5 | 17 | 0.0 | 0.0 | 0.00 | 0.00 | 0.00 | 74 | 1016.8 |
| 20260502045404 | 5 | 17 | 0.0 | 0.0 | 0.00 | 0.00 | 0.00 | 74 | 1016.8 |
| 20260502044903 | 5 | 17 | 0.0 | 0.0 | 0.00 | 0.00 | 0.00 | 74 | 1016.8 |
| 20260502043903 | 5 | 17 | 0.0 | 0.0 | 0.00 | 0.00 | 0.00 | 74 | 1016.8 |
| 20260502043403 | 5 | 17 | 0.0 | 0.0 | 0.00 | 0.00 | 0.00 | 73 | 1016.7 |
| 20260502042403 | 5 | 17 | 0.0 | 0.0 | 0.00 | 0.00 | 0.00 | 73 | 1016.7 |
| 20260502041903 | 5 | 17 | 0.0 | 0.0 | 0.00 | 0.00 | 0.00 | 72 | 1016.8 |
| 20260502041402 | 6 | 17 | 0.0 | 0.0 | 0.00 | 0.00 | 0.00 | 72 | 1016.8 |
| 20260502040903 | 6 | 17 | 0.0 | 0.0 | 0.00 | 0.00 | 0.00 | 72 | 1016.7 |
| 20260502040403 | 6 | 17 | 0.0 | 0.0 | 0.00 | 0.00 | 0.00 | 72 | 1016.7 |
| 20260502035904 | 6 | 17 | 0.0 | 0.0 | 0.00 | 0.00 | 0.00 | 72 | 1016.6 |
| 20260502035404 | 6 | 17 | 0.0 | 0.0 | 0.00 | 0.00 | 0.00 | 71 | 1016.7 |
| 20260502034903 | 6 | 17 | 0.0 | 0.0 | 0.00 | 0.00 | 0.00 | 71 | 1016.6 |
| 20260502034404 | 6 | 17 | 0.0 | 0.0 | 0.00 | 0.00 | 0.00 | 70 | 1016.6 |
| 20260502033904 | 6 | 17 | 0.0 | 0.0 | 0.00 | 0.00 | 0.00 | 70 | 1016.6 |
| 20260502033403 | 6 | 17 | 0.0 | 0.0 | 0.00 | 0.00 | 0.00 | 70 | 1016.6 |
| 20260502032903 | 7 | 17 | 0.0 | 0.0 | 0.00 | 0.00 | 0.00 | 69 | 1016.6 |
| 20260502031903 | 7 | 17 | 0.0 | 0.0 | 0.00 | 0.00 | 0.00 | 69 | 1016.6 |
| 20260502031403 | 7 | 17 | 0.0 | 0.0 | 0.00 | 0.00 | 0.00 | 68 | 1016.6 |
| 20260502030903 | 7 | 17 | 0.0 | 0.0 | 0.00 | 0.00 | 0.00 | 68 | 1016.5 |
| 20260502025902 | 7 | 17 | 0.0 | 0.0 | 0.00 | 0.00 | 0.00 | 67 | 1016.4 |
| 20260502025402 | 7 | 17 | 0.0 | 0.0 | 0.00 | 0.00 | 0.00 | 67 | 1016.4 |
| 20260502024904 | 8 | 17 | 0.0 | 0.0 | 0.00 | 0.00 | 0.00 | 66 | 1016.4 |
| 20260502024405 | 8 | 17 | 0.0 | 0.0 | 0.00 | 0.00 | 0.00 | 66 | 1016.4 |
| 20260502023903 | 8 | 17 | 0.0 | 0.0 | 0.00 | 0.00 | 0.00 | 66 | 1016.3 |
| 20260502022903 | 8 | 17 | 0.0 | 0.0 | 0.00 | 0.00 | 0.00 | 64 | 1016.3 |
| 20260502022403 | 8 | 17 | 0.0 | 0.0 | 0.00 | 0.00 | 0.00 | 63 | 1016.3 |
| 20260502021403 | 8 | 17 | 0.0 | 0.0 | 0.00 | 0.00 | 0.00 | 63 | 1016.2 |
| 20260502020903 | 9 | 17 | 0.0 | 0.0 | 0.00 | 0.00 | 0.00 | 62 | 1016.2 |
| 20260502020404 | 9 | 17 | 0.0 | 0.0 | 0.00 | 0.00 | 0.00 | 62 | 1016.1 |
| 20260502015903 | 9 | 17 | 0.0 | 0.0 | 0.00 | 0.00 | 0.00 | 61 | 1016.1 |
| 20260502015403 | 9 | 17 | 0.0 | 0.0 | 0.00 | 0.00 | 0.00 | 60 | 1016.0 |
| 20260502014903 | 10 | 17 | 0.0 | 0.0 | 0.00 | 0.00 | 0.00 | 60 | 1016.0 |
| 20260502014403 | 10 | 17 | 0.0 | 0.0 | 0.00 | 0.00 | 0.00 | 58 | 1016.0 |
| 20260502013903 | 10 | 17 | 0.0 | 0.0 | 0.00 | 0.00 | 0.00 | 58 | 1016.0 |
| 20260502013403 | 10 | 17 | 0.0 | 0.0 | 0.00 | 0.00 | 0.00 | 58 | 1015.8 |
| 20260502012904 | 10 | 17 | 0.0 | 0.0 | 0.00 | 0.00 | 0.00 | 57 | 1016.0 |
| 20260502012403 | 10 | 17 | 0.0 | 0.0 | 0.00 | 0.00 | 0.00 | 55 | 1015.9 |
| 20260502011903 | 11 | 17 | 0.0 | 0.0 | 0.00 | 0.00 | 0.00 | 55 | 1015.9 |
| 20260502011403 | 11 | 17 | 0.0 | 0.0 | 0.00 | 0.00 | 0.00 | 55 | 1015.8 |
| 20260502010902 | 11 | 17 | 0.0 | 0.0 | 0.00 | 0.00 | 0.00 | 54 | 1015.7 |
| 20260502010405 | 11 | 17 | 0.0 | 0.0 | 0.00 | 0.00 | 0.00 | 55 | 1015.7 |
| 20260502005904 | 11 | 17 | 0.0 | 0.0 | 0.00 | 0.00 | 0.00 | 53 | 1015.6 |
| 20260502005403 | 11 | 17 | 0.0 | 0.0 | 0.00 | 0.00 | 0.00 | 52 | 1015.5 |
| 20260502004903 | 11 | 17 | 0.0 | 0.0 | 0.00 | 0.00 | 0.00 | 50 | 1015.4 |
| 20260502004403 | 12 | 17 | 0.0 | 0.0 | 0.00 | 0.00 | 0.00 | 50 | 1015.2 |
| 20260502003903 | 12 | 17 | 0.0 | 8.0 | 0.00 | 0.00 | 0.00 | 47 | 1015.2 |
| 20260502003403 | 12 | 17 | 1.6 | 8.0 | 0.00 | 0.00 | 0.00 | 46 | 1015.0 |
| 20260502002402 | 12 | 35 | 3.2 | 9.7 | 0.00 | 0.00 | 0.00 | 45 | 1014.8 |
| 20260502001903 | 12 | 16 | 1.6 | 9.7 | 0.00 | 0.00 | 0.00 | 45 | 1014.7 |
| 20260502001403 | 12 | 27 | 4.8 | 11.3 | 0.00 | 0.00 | 0.00 | 45 | 1014.6 |
| 20260502000403 | 12 | 26 | 6.4 | 11.3 | 0.00 | 0.00 | 0.00 | 45 | 1014.3 |
| 20260501235903 | 12 | 12 | 3.2 | 11.3 | 0.00 | 0.00 | 0.00 | 45 | 1014.2 |
| 20260501235403 | 12 | 20 | 6.4 | 11.3 | 0.00 | 0.00 | 0.00 | 46 | 1014.1 |
| 20260501234402 | 13 | 356 | 4.8 | 11.3 | 0.00 | 0.00 | 0.00 | 46 | 1013.8 |
| 20260501233403 | 13 | 21 | 8.0 | 11.3 | 0.00 | 0.00 | 0.00 | 46 | 1013.7 |
| 20260501232903 | 13 | 28 | 6.4 | 12.9 | 0.00 | 0.00 | 0.00 | 46 | 1013.5 |
| 20260501232403 | 13 | 19 | 8.0 | 12.9 | 0.00 | 0.00 | 0.00 | 46 | 1013.4 |
| 20260501231903 | 13 | 18 | 8.0 | 11.3 | 0.00 | 0.00 | 0.00 | 47 | 1013.3 |
| 20260501231403 | 13 | 13 | 3.2 | 11.3 | 0.00 | 0.00 | 0.00 | 46 | 1013.2 |
| 20260501230903 | 13 | 23 | 8.0 | 11.3 | 0.00 | 0.00 | 0.00 | 45 | 1013.1 |
| 20260501230403 | 13 | 26 | 3.2 | 12.9 | 0.00 | 0.00 | 0.00 | 44 | 1013.0 |
| 20260501225904 | 13 | 26 | 8.0 | 14.5 | 0.00 | 0.00 | 0.00 | 43 | 1012.9 |
| 20260501225403 | 14 | 30 | 9.7 | 14.5 | 0.00 | 0.00 | 0.00 | 44 | 1012.8 |
| 20260501224402 | 14 | 21 | 8.0 | 14.5 | 0.00 | 0.00 | 0.00 | 42 | 1012.6 |
| 20260501223904 | 14 | 12 | 9.7 | 14.5 | 0.00 | 0.00 | 0.00 | 42 | 1012.5 |
| 20260501223403 | 14 | 17 | 9.7 | 14.5 | 0.00 | 0.00 | 0.00 | 42 | 1012.4 |
| 20260501222403 | 14 | 13 | 6.4 | 14.5 | 0.00 | 0.00 | 0.00 | 44 | 1012.3 |
| 20260501221903 | 14 | 15 | 9.7 | 14.5 | 0.00 | 0.00 | 0.00 | 42 | 1012.1 |
| 20260501220903 | 14 | 38 | 8.0 | 14.5 | 0.00 | 0.00 | 0.00 | 44 | 1012.0 |
| 20260501220403 | 14 | 23 | 4.8 | 19.3 | 0.00 | 0.00 | 0.00 | 43 | 1011.9 |
| 20260501215904 | 14 | 326 | 8.0 | 19.3 | 0.00 | 0.00 | 0.00 | 43 | 1011.9 |
| 20260501214903 | 15 | 24 | 9.7 | 16.1 | 0.00 | 0.00 | 0.00 | 42 | 1011.9 |
| 20260501214403 | 15 | 18 | 11.3 | 16.1 | 0.00 | 0.00 | 0.00 | 42 | 1011.9 |
| 20260501213903 | 15 | 13 | 9.7 | 14.5 | 0.00 | 0.00 | 0.00 | 42 | 1011.9 |
| 20260501213403 | 15 | 4 | 3.2 | 14.5 | 0.00 | 0.00 | 0.00 | 43 | 1011.8 |
| 20260501212903 | 15 | 12 | 11.3 | 16.1 | 0.00 | 0.00 | 0.00 | 41 | 1011.7 |
| 20260501212403 | 15 | 24 | 9.7 | 16.1 | 0.00 | 0.00 | 0.00 | 40 | 1011.8 |
| 20260501211403 | 15 | 34 | 4.8 | 14.5 | 0.00 | 0.00 | 0.00 | 44 | 1011.7 |
| 20260501210903 | 15 | 17 | 8.0 | 16.1 | 0.00 | 0.00 | 0.00 | 44 | 1011.7 |
| 20260501210403 | 15 | 3 | 8.0 | 16.1 | 0.00 | 0.00 | 0.00 | 44 | 1011.6 |
| 20260501205903 | 15 | 41 | 6.4 | 20.9 | 0.00 | 0.00 | 0.00 | 44 | 1011.5 |
| 20260501205403 | 15 | 52 | 3.2 | 20.9 | 0.00 | 0.00 | 0.00 | 46 | 1011.4 |
| 20260501204903 | 15 | 22 | 6.4 | 12.9 | 0.00 | 0.00 | 0.00 | 47 | 1011.5 |
| 20260501204403 | 15 | 17 | 0.0 | 11.3 | 0.00 | 0.00 | 0.00 | 48 | 1011.5 |
| 20260501203903 | 15 | 15 | 4.8 | 14.5 | 0.00 | 0.00 | 0.00 | 48 | 1011.4 |
| 20260501203403 | 15 | 78 | 8.0 | 14.5 | 0.00 | 0.00 | 0.00 | 46 | 1011.4 |
| 20260501202902 | 15 | 20 | 6.4 | 12.9 | 0.00 | 0.00 | 0.00 | 51 | 1011.4 |
| 20260501202404 | 15 | 68 | 0.0 | 12.9 | 0.00 | 0.00 | 0.00 | 49 | 1011.3 |
| 20260501200902 | 15 | 11 | 9.7 | 16.1 | 0.00 | 0.00 | 0.00 | 48 | 1011.3 |
| 20260501200402 | 15 | 26 | 8.0 | 12.9 | 0.00 | 0.00 | 0.00 | 51 | 1011.2 |
| 20260501195903 | 15 | 11 | 8.0 | 12.9 | 0.00 | 0.00 | 0.00 | 50 | 1011.2 |
| 20260501193903 | 15 | 34 | 1.6 | 8.0 | 0.00 | 0.00 | 0.00 | 55 | 1011.1 |
| 20260501193403 | 15 | 25 | 0.0 | 12.9 | 0.00 | 0.00 | 0.00 | 55 | 1011.1 |
| 20260501192403 | 15 | 146 | 0.0 | 12.9 | 0.00 | 0.00 | 0.00 | 55 | 1011.1 |
| 20260501191903 | 14 | 4 | 4.8 | 11.3 | 0.00 | 0.00 | 0.00 | 56 | 1011.1 |
| 20260501191403 | 14 | 83 | 4.8 | 12.9 | 0.00 | 0.00 | 0.00 | 57 | 1011.2 |
| 20260501190903 | 13 | 9 | 4.8 | 14.5 | 0.00 | 0.00 | 0.00 | 57 | 1011.1 |
| 20260501190403 | 13 | 10 | 9.7 | 14.5 | 0.00 | 0.00 | 0.00 | 56 | 1011.1 |
| 20260501185403 | 13 | 28 | 4.8 | 12.9 | 0.00 | 0.00 | 0.00 | 57 | 1011.2 |
| 20260501184903 | 13 | 9 | 6.4 | 12.9 | 0.00 | 0.00 | 0.00 | 56 | 1011.2 |
| 20260501184403 | 13 | 11 | 4.8 | 12.9 | 0.00 | 0.00 | 0.00 | 56 | 1011.1 |
| 20260501183904 | 14 | 22 | 8.0 | 11.3 | 0.00 | 0.00 | 0.00 | 55 | 1011.1 |
| 20260501183404 | 14 | 10 | 8.0 | 12.9 | 0.00 | 0.00 | 0.00 | 55 | 1011.1 |
| 20260501182903 | 14 | 21 | 6.4 | 12.9 | 0.00 | 0.00 | 0.00 | 55 | 1011.0 |
| 20260501182404 | 15 | 10 | 3.2 | 12.9 | 0.00 | 0.00 | 0.00 | 54 | 1011.0 |
| 20260501181903 | 15 | 6 | 3.2 | 9.7 | 0.00 | 0.00 | 0.00 | 55 | 1011.0 |
| 20260501180903 | 15 | 43 | 0.0 | 12.9 | 0.00 | 0.00 | 0.00 | 56 | 1010.9 |
| 20260501180403 | 14 | 12 | 8.0 | 14.5 | 0.00 | 0.00 | 0.00 | 56 | 1010.9 |
| 20260501175905 | 14 | 36 | 8.0 | 14.5 | 0.00 | 0.00 | 0.00 | 55 | 1010.9 |
| 20260501175402 | 14 | 16 | 8.0 | 11.3 | 0.00 | 0.00 | 0.00 | 56 | 1010.9 |
| 20260501174902 | 13 | 20 | 4.8 | 19.3 | 0.00 | 0.00 | 0.00 | 56 | 1010.9 |
| 20260501174403 | 13 | 14 | 9.7 | 19.3 | 0.00 | 0.00 | 0.00 | 54 | 1011.0 |
| 20260501173902 | 14 | 0 | 1.6 | 16.1 | 0.00 | 0.00 | 0.00 | 56 | 1011.0 |
| 20260501173402 | 14 | 9 | 9.7 | 16.1 | 0.00 | 0.00 | 0.00 | 55 | 1011.1 |
| 20260501172903 | 14 | 71 | 8.0 | 11.3 | 0.00 | 0.00 | 0.00 | 57 | 1011.1 |
| 20260501171903 | 13 | 14 | 11.3 | 16.1 | 0.00 | 0.00 | 0.00 | 56 | 1011.1 |
| 20260501171403 | 13 | 13 | 8.0 | 14.5 | 0.00 | 0.00 | 0.00 | 58 | 1011.1 |
| 20260501170903 | 13 | 23 | 4.8 | 12.9 | 0.00 | 0.00 | 0.00 | 59 | 1011.2 |
| 20260501170404 | 13 | 19 | 4.8 | 12.9 | 0.00 | 0.00 | 0.00 | 59 | 1011.2 |
| 20260501165902 | 13 | 14 | 6.4 | 14.5 | 0.00 | 0.00 | 0.00 | 58 | 1011.2 |
| 20260501165403 | 13 | 19 | 8.0 | 16.1 | 0.00 | 0.00 | 0.00 | 59 | 1011.3 |
| 20260501164903 | 13 | 25 | 9.7 | 16.1 | 0.00 | 0.00 | 0.00 | 57 | 1011.3 |
| 20260501164403 | 13 | 354 | 9.7 | 14.5 | 0.00 | 0.00 | 0.00 | 56 | 1011.3 |
| 20260501163903 | 13 | 6 | 11.3 | 16.1 | 0.00 | 0.00 | 0.00 | 56 | 1011.4 |
| 20260501163403 | 13 | 25 | 9.7 | 16.1 | 0.00 | 0.00 | 0.00 | 56 | 1011.3 |
| 20260501162903 | 14 | 12 | 8.0 | 12.9 | 0.00 | 0.00 | 0.00 | 57 | 1011.3 |
| 20260501162403 | 15 | 21 | 8.0 | 12.9 | 0.00 | 0.00 | 0.00 | 57 | 1011.3 |
| 20260501161404 | 14 | 7 | 3.2 | 12.9 | 0.00 | 0.00 | 0.00 | 59 | 1011.4 |
| 20260501160903 | 14 | 11 | 1.6 | 11.3 | 0.00 | 0.00 | 0.00 | 60 | 1011.3 |
| 20260501160403 | 13 | 40 | 4.8 | 14.5 | 0.00 | 0.00 | 0.00 | 61 | 1011.5 |
| 20260501155903 | 13 | 48 | 4.8 | 14.5 | 0.00 | 0.00 | 0.00 | 59 | 1011.4 |
| 20260501155403 | 13 | 0 | 1.6 | 12.9 | 0.00 | 0.00 | 0.00 | 60 | 1011.5 |
| 20260501154903 | 12 | 18 | 8.0 | 12.9 | 0.00 | 0.00 | 0.00 | 60 | 1011.5 |
| 20260501154403 | 12 | 5 | 8.0 | 12.9 | 0.00 | 0.00 | 0.00 | 60 | 1011.5 |